#timestamp,LO_Frequency,Hit,StdDev 
1615986015.2,286047001.9,N
1615986035.1,286047001.5,N
1615986036.0,286047001.5,N
1615986055.8,286047002.3,N
1615986075.6,286047001.7,N
1615986095.5,286047002.0,N
1615986115.3,286047004.4,Y
1615986135.1,286047002.8,P
1615986155.9,286047000.0,N
1615986175.7,286047000.0,N
1615986195.6,286047000.2,N
1615986215.4,286046999.7,N
1615986235.2,286047000.6,N
1615986255.1,286047000.6,N
1615986256.0,286047000.6,N
1615986275.8,286046999.9,N
1615986295.6,286047000.4,N
1615986315.5,286047000.0,N
1615986335.3,286047000.1,N
1615986355.2,286047001.9,N
1615986375.9,286047002.6,Y
1615986395.7,286047002.3,P
1615986415.6,286046999.8,N
1615986435.4,286047000.2,N
1615986455.2,286047000.0,N
1615986475.1,286047000.2,N
1615986476.0,286047000.2,N
1615986495.8,286047002.6,Y
1615986515.7,286047011.9,P
1615986535.5,286047002.0,N
1615986555.3,286046999.7,N
1615986575.2,286047000.2,N
1615986595.0,286047002.1,N
1615986595.9,286047002.1,N
1615986615.7,286046999.7,N
1615986635.6,286047001.8,N
1615986655.4,286047002.0,N
1615986675.3,286047001.8,N
1615986695.1,286047001.7,N
1615986715.8,286047002.8,N
1615986735.7,286047000.0,N
1615986755.5,286046999.9,N
1615986775.4,286047000.2,N
1615986795.2,286047000.5,N
1615986815.0,286047002.8,N
1615986815.9,286047002.8,N
1615986835.8,286047000.4,N
1615986855.6,286047002.8,N
1615986875.4,286046999.8,N
1615986895.3,286047002.6,N
1615986915.1,286046999.8,N
1615986935.9,286047000.2,N
1615986955.7,286047002.8,N
1615986975.5,286047002.0,N
1615986995.4,286046999.8,N
1615987015.2,286047002.3,N
1615987035.0,286047000.1,N
1615987035.9,286047000.1,N
1615987055.8,286047000.2,N
1615987075.6,286047001.6,N
1615987095.5,286047001.3,N
1615987115.3,286047001.8,N
1615987135.1,286047003.9,Y
1615987155.9,286047002.1,P
1615987175.7,286047002.6,P
1615987195.5,286047001.3,N
1615987215.4,286047001.9,Y
1615987235.2,286047002.6,P
1615987255.1,286047002.4,P
1615987256.0,286047002.4,P
1615987275.8,286047002.6,Y
1615987295.6,286046998.8,P
1615987315.5,286046998.3,N
1615987335.3,286046998.8,N
1615987355.2,286046998.9,N
1615987375.9,286046999.0,N
1615987395.7,286046999.5,N
1615987415.6,286046998.5,N
1615987435.4,286046998.8,N
1615987455.2,286046998.2,N
1615987475.1,286047002.4,N
1615987476.0,286047002.4,N
1615987495.8,286047001.5,N
1615987515.7,286047001.7,N
1615987535.5,286047001.7,N
1615987555.3,286046999.8,N
1615987575.2,286047003.7,N
1615987595.0,286047003.6,N
1615987595.9,286047003.6,N
1615987615.7,286047001.7,N
1615987635.6,286047001.9,N
1615987655.4,286047001.9,N
1615987675.3,286047003.0,N
1615987695.1,286047003.6,N
1615987696.0,286047003.6,N
1615987715.8,286046999.7,N
1615987765.7,286047001.2,E
1615987775.6,286047000.7,N
1615987795.5,286046999.1,P
1615987815.3,286046999.4,N
1615987835.1,286046999.3,N
1615987855.9,286046998.9,N
1615987875.7,286046998.7,N
1615987895.5,286047001.0,N
1615987915.4,286046999.4,N
1615987935.2,286047001.1,N
1615987955.1,286046999.7,N
1615987956.0,286046999.7,N
1615987975.8,286047001.0,N
1615987995.6,286047000.9,N
1615988015.5,286047002.1,N
1615988035.3,286047002.1,N
1615988055.1,286047002.4,N
1615988075.9,286047003.8,Y
1615988095.7,286047000.1,P
1615988115.6,286047002.7,P
1615988135.4,286047002.7,N
1615988155.2,286047002.5,N
1615988175.1,286046999.9,N
1615988176.0,286046999.9,N
1615988195.8,286046998.4,N
1615988215.6,286046998.2,N
1615988235.5,286046998.2,N
1615988255.3,286046998.1,N
1615988275.2,286046998.7,N
1615988295.9,286046999.1,N
1615988315.7,286046997.4,N
1615988335.6,286046997.1,N
1615988355.4,286046998.4,N
1615988375.2,286046998.9,N
1615988395.1,286046997.7,N
1615988396.0,286046997.7,N
1615988415.8,286046996.6,N
1615988435.7,286046999.6,N
1615988455.5,286046997.4,N
1615988475.3,286046997.5,N
1615988495.2,286046997.6,N
1615988515.0,286046997.7,N
1615988515.9,286046997.7,N
1615988535.7,286046997.4,N
1615988555.6,286046999.6,N
1615988575.4,286046997.1,N
1615988595.3,286046997.8,N
1615988615.1,286046997.3,N
1615988616.0,286046997.3,N
1615988635.8,286046996.7,N
1615988655.7,286046996.5,N
1615988675.5,286047000.5,N
1615988695.3,286047000.7,N
1615988715.2,286047001.2,N
1615988735.0,286046998.4,N
1615988735.9,286046998.4,N
1615988755.8,286046997.0,N
1615988775.6,286046994.9,Y
1615988795.4,286046997.9,P
1615988815.3,286046996.4,P
1615988835.1,286046993.4,P
1615988855.9,286046994.2,Y
1615988875.7,286046996.1,P
1615988895.5,286046991.7,P
1615988915.4,286046992.8,P
1615988935.2,286046992.6,Y
1615988955.0,286046997.9,P
1615988956.0,286046997.9,N
1615988975.8,286046997.8,N
1615988995.6,286046995.0,Y
1615989015.5,286047000.8,P
1615989035.3,286047001.0,N
1615989055.1,286046998.3,N
1615989075.9,286047000.4,N
1615989095.7,286047000.1,N
1615989115.5,286047000.0,N
1615989135.4,286047000.9,N
1615989155.2,286047000.3,N
1615989175.1,286047001.1,N
1615989176.0,286047001.1,N
1615989195.8,286046999.9,N
1615989215.6,286046999.9,N
1615989235.5,286047000.1,N
1615989255.3,286047002.6,N
1615989275.1,286047004.0,Y
1615989295.9,286047004.4,P
1615989315.7,286047002.6,N
1615989335.6,286046999.7,N
1615989355.4,286047002.0,N
1615989375.2,286047001.6,N
1615989395.1,286047001.7,N
1615989396.0,286047001.7,N
1615989415.8,286047002.0,N
1615989435.6,286047001.5,N
1615989455.5,286047001.4,N
1615989475.3,286047004.2,Y
1615989495.2,286047002.6,P
1615989515.9,286047000.8,N
1615989535.7,286047000.8,N
1615989555.6,286047002.7,Y
1615989575.4,286047001.0,P
1615989595.3,286046999.9,N
